KUIPER-00488

导读 | 豆包AI

KUIPER-00488(NORAD编号68879)是亚马逊柯伊伯(Kuiper)卫星互联网星座部署中的一颗低轨通信卫星,隶属于柯伊伯项目。该项目计划发射数千颗低轨卫星,旨在为全球提供高速低延迟宽带互联网服务,填补偏远地区网络覆盖空白。作为星座组网进程中的一颗卫星,它运行在近地轨道,通过V及Ku波段提供通信服务,助力亚马逊完成星座部署计划,推进全球卫星互联网基础设施建设,与SpaceX星链等项目形成商业竞争,推动太空互联网产业发展。

基本信息
目录编号:
68879
目录名称:
KUIPER-00488
国际标识:
2026-095R
轨道中心:
EARTH
卫星名称:
KUIPER-00488
卫星全名:
KUIPER-00488
卫星状态:
在轨 (已飞行27 天)
发射日期:
2026-04-28 UTC
国别 :
美国 (US)
星等 :
--
轨道信息
数据来源 国际轨道数据
星历时间: 2026-05-24T04:50:18+0800
1天前
查看轨道信息
半长轴: 6837.21km
偏心率: 0.0010587
轨道倾角: 51.869°
近地点辐角 219.866°
升交点赤经 0.264°
平近点角 140.155°
近地点: 451.834km
远地点: 466.312km
周期: 93.773分钟
每日圈数: 15.356225
详细信息
使用方式:
暂无
2D轨道图
3D轨道图
轨道高度分析图
轨道倾角分析图
轨道综合分析图
查看轨道综合分析图